<?xml version="1.0" encoding="UTF-8" standalone="no" ?>
<gpx xmlns="http://www.topografix.com/GPX/1/1" xmlns:xsi="http://www.w3.org/2001/XMLSchema-instance" xsi:schemaLocation="http://www.topografix.com/GPX/1/1 http://www.topografix.com/GPX/1/1/gpx.xsd" version="1.1" creator="VisuGPX - https://www.visugpx.com">
  <metadata>
    <name>jour_1_4_44km_sans_fin_ni_debut</name>
  </metadata>
  <trk>
    <name><![CDATA[jour_1_4_44km_sans_fin_ni_debut_4_pays]]></name>
    <extensions>
      <line xmlns="http://www.topografix.com/GPX/gpx_style/0/2">
        <color>0000FF</color>
        <width>4</width>
      </line>
    </extensions>
    <trkseg>
      <trkpt lat="50.62459" lon="5.56676">
        <ele>69</ele>
        <time>2025-04-21T08:44:18Z</time>
      </trkpt>
      <trkpt lat="50.62478" lon="5.56758">
        <ele>65</ele>
        <time>2025-04-21T08:44:31Z</time>
      </trkpt>
      <trkpt lat="50.62439" lon="5.56826">
        <ele>67</ele>
        <time>2025-04-21T08:44:45Z</time>
      </trkpt>
      <trkpt lat="50.62514" lon="5.56895">
        <ele>67</ele>
        <time>2025-04-21T08:45:05Z</time>
      </trkpt>
      <trkpt lat="50.62536" lon="5.56923">
        <ele>67</ele>
        <time>2025-04-21T08:45:11Z</time>
      </trkpt>
      <trkpt lat="50.62626" lon="5.57087">
        <ele>66</ele>
        <time>2025-04-21T08:45:44Z</time>
      </trkpt>
      <trkpt lat="50.62753" lon="5.5727">
        <ele>70</ele>
        <time>2025-04-21T08:46:24Z</time>
      </trkpt>
      <trkpt lat="50.62768" lon="5.57303">
        <ele>67</ele>
        <time>2025-04-21T08:46:30Z</time>
      </trkpt>
      <trkpt lat="50.62761" lon="5.57312">
        <ele>67</ele>
        <time>2025-04-21T08:46:32Z</time>
      </trkpt>
      <trkpt lat="50.62781" lon="5.57369">
        <ele>61</ele>
        <time>2025-04-21T08:46:41Z</time>
      </trkpt>
      <trkpt lat="50.62865" lon="5.57542">
        <ele>65</ele>
        <time>2025-04-21T08:47:14Z</time>
      </trkpt>
      <trkpt lat="50.62848" lon="5.5756">
        <ele>66</ele>
        <time>2025-04-21T08:47:19Z</time>
      </trkpt>
      <trkpt lat="50.6279" lon="5.576">
        <ele>72</ele>
        <time>2025-04-21T08:47:33Z</time>
      </trkpt>
      <trkpt lat="50.62769" lon="5.57586">
        <ele>73</ele>
        <time>2025-04-21T08:47:39Z</time>
      </trkpt>
      <trkpt lat="50.62757" lon="5.57585">
        <ele>74</ele>
        <time>2025-04-21T08:47:41Z</time>
      </trkpt>
      <trkpt lat="50.62708" lon="5.57618">
        <ele>69</ele>
        <time>2025-04-21T08:47:54Z</time>
      </trkpt>
      <trkpt lat="50.62562" lon="5.57732">
        <ele>65</ele>
        <time>2025-04-21T08:48:32Z</time>
      </trkpt>
      <trkpt lat="50.62546" lon="5.57761">
        <ele>66</ele>
        <time>2025-04-21T08:48:38Z</time>
      </trkpt>
      <trkpt lat="50.62497" lon="5.57793">
        <ele>66</ele>
        <time>2025-04-21T08:48:50Z</time>
      </trkpt>
      <trkpt lat="50.62488" lon="5.57807">
        <ele>67</ele>
        <time>2025-04-21T08:48:53Z</time>
      </trkpt>
      <trkpt lat="50.62484" lon="5.57832">
        <ele>67</ele>
        <time>2025-04-21T08:48:57Z</time>
      </trkpt>
      <trkpt lat="50.625" lon="5.57977">
        <ele>66</ele>
        <time>2025-04-21T08:49:19Z</time>
      </trkpt>
      <trkpt lat="50.62425" lon="5.57984">
        <ele>63</ele>
        <time>2025-04-21T08:49:36Z</time>
      </trkpt>
      <trkpt lat="50.62398" lon="5.57993">
        <ele>62</ele>
        <time>2025-04-21T08:49:43Z</time>
      </trkpt>
      <trkpt lat="50.62364" lon="5.58012">
        <ele>61</ele>
        <time>2025-04-21T08:49:51Z</time>
      </trkpt>
      <trkpt lat="50.62331" lon="5.58038">
        <ele>61</ele>
        <time>2025-04-21T08:50:00Z</time>
      </trkpt>
      <trkpt lat="50.62281" lon="5.58093">
        <ele>62</ele>
        <time>2025-04-21T08:50:14Z</time>
      </trkpt>
      <trkpt lat="50.6228" lon="5.58103">
        <ele>63</ele>
        <time>2025-04-21T08:50:15Z</time>
      </trkpt>
      <trkpt lat="50.62223" lon="5.58216">
        <ele>66</ele>
        <time>2025-04-21T08:50:37Z</time>
      </trkpt>
      <trkpt lat="50.62212" lon="5.58221">
        <ele>65</ele>
        <time>2025-04-21T08:50:39Z</time>
      </trkpt>
      <trkpt lat="50.62206" lon="5.58229">
        <ele>65</ele>
        <time>2025-04-21T08:50:41Z</time>
      </trkpt>
      <trkpt lat="50.62197" lon="5.58249">
        <ele>66</ele>
        <time>2025-04-21T08:50:45Z</time>
      </trkpt>
      <trkpt lat="50.62162" lon="5.58342">
        <ele>69</ele>
        <time>2025-04-21T08:51:01Z</time>
      </trkpt>
      <trkpt lat="50.6216" lon="5.5836">
        <ele>69</ele>
        <time>2025-04-21T08:51:04Z</time>
      </trkpt>
      <trkpt lat="50.62042" lon="5.58702">
        <ele>65</ele>
        <time>2025-04-21T08:52:01Z</time>
      </trkpt>
      <trkpt lat="50.62011" lon="5.58803">
        <ele>66</ele>
        <time>2025-04-21T08:52:18Z</time>
      </trkpt>
      <trkpt lat="50.61961" lon="5.58935">
        <ele>69</ele>
        <time>2025-04-21T08:52:41Z</time>
      </trkpt>
      <trkpt lat="50.6192" lon="5.59032">
        <ele>70</ele>
        <time>2025-04-21T08:52:58Z</time>
      </trkpt>
      <trkpt lat="50.61833" lon="5.59211">
        <ele>64</ele>
        <time>2025-04-21T08:53:31Z</time>
      </trkpt>
      <trkpt lat="50.61821" lon="5.59222">
        <ele>64</ele>
        <time>2025-04-21T08:53:35Z</time>
      </trkpt>
      <trkpt lat="50.61762" lon="5.59153">
        <ele>65</ele>
        <time>2025-04-21T08:53:52Z</time>
      </trkpt>
      <trkpt lat="50.61703" lon="5.59281">
        <ele>70</ele>
        <time>2025-04-21T08:54:15Z</time>
      </trkpt>
      <trkpt lat="50.61628" lon="5.59468">
        <ele>72</ele>
        <time>2025-04-21T08:54:48Z</time>
      </trkpt>
      <trkpt lat="50.61571" lon="5.59655">
        <ele>67</ele>
        <time>2025-04-21T08:55:19Z</time>
      </trkpt>
      <trkpt lat="50.61505" lon="5.59902">
        <ele>64</ele>
        <time>2025-04-21T08:55:58Z</time>
      </trkpt>
      <trkpt lat="50.61487" lon="5.59983">
        <ele>64</ele>
        <time>2025-04-21T08:56:11Z</time>
      </trkpt>
      <trkpt lat="50.61482" lon="5.6004">
        <ele>64</ele>
        <time>2025-04-21T08:56:20Z</time>
      </trkpt>
      <trkpt lat="50.61473" lon="5.60093">
        <ele>65</ele>
        <time>2025-04-21T08:56:28Z</time>
      </trkpt>
      <trkpt lat="50.61455" lon="5.60131">
        <ele>65</ele>
        <time>2025-04-21T08:56:35Z</time>
      </trkpt>
      <trkpt lat="50.61448" lon="5.60184">
        <ele>66</ele>
        <time>2025-04-21T08:56:43Z</time>
      </trkpt>
      <trkpt lat="50.61428" lon="5.60195">
        <ele>67</ele>
        <time>2025-04-21T08:56:48Z</time>
      </trkpt>
      <trkpt lat="50.6141" lon="5.60246">
        <ele>68</ele>
        <time>2025-04-21T08:56:56Z</time>
      </trkpt>
      <trkpt lat="50.61152" lon="5.61203">
        <ele>65</ele>
        <time>2025-04-21T08:59:31Z</time>
      </trkpt>
      <trkpt lat="50.61127" lon="5.6119">
        <ele>64</ele>
        <time>2025-04-21T08:59:37Z</time>
      </trkpt>
      <trkpt lat="50.61118" lon="5.61224">
        <ele>65</ele>
        <time>2025-04-21T08:59:42Z</time>
      </trkpt>
      <trkpt lat="50.61108" lon="5.61238">
        <ele>65</ele>
        <time>2025-04-21T08:59:45Z</time>
      </trkpt>
      <trkpt lat="50.61093" lon="5.61248">
        <ele>64</ele>
        <time>2025-04-21T08:59:49Z</time>
      </trkpt>
      <trkpt lat="50.61074" lon="5.61252">
        <ele>64</ele>
        <time>2025-04-21T08:59:54Z</time>
      </trkpt>
      <trkpt lat="50.61052" lon="5.6125">
        <ele>65</ele>
        <time>2025-04-21T08:59:59Z</time>
      </trkpt>
      <trkpt lat="50.60952" lon="5.61221">
        <ele>67</ele>
        <time>2025-04-21T09:00:22Z</time>
      </trkpt>
      <trkpt lat="50.60892" lon="5.61197">
        <ele>68</ele>
        <time>2025-04-21T09:00:37Z</time>
      </trkpt>
      <trkpt lat="50.60926" lon="5.6122">
        <ele>67</ele>
        <time>2025-04-21T09:00:46Z</time>
      </trkpt>
      <trkpt lat="50.60854" lon="5.61471">
        <ele>67</ele>
        <time>2025-04-21T09:01:26Z</time>
      </trkpt>
      <trkpt lat="50.6084" lon="5.61557">
        <ele>69</ele>
        <time>2025-04-21T09:01:40Z</time>
      </trkpt>
      <trkpt lat="50.60851" lon="5.61565">
        <ele>69</ele>
        <time>2025-04-21T09:01:42Z</time>
      </trkpt>
      <trkpt lat="50.60849" lon="5.61612">
        <ele>69</ele>
        <time>2025-04-21T09:01:49Z</time>
      </trkpt>
      <trkpt lat="50.60814" lon="5.61728">
        <ele>70</ele>
        <time>2025-04-21T09:02:08Z</time>
      </trkpt>
      <trkpt lat="50.60815" lon="5.61745">
        <ele>70</ele>
        <time>2025-04-21T09:02:11Z</time>
      </trkpt>
      <trkpt lat="50.60802" lon="5.61794">
        <ele>70</ele>
        <time>2025-04-21T09:02:19Z</time>
      </trkpt>
      <trkpt lat="50.60744" lon="5.61975">
        <ele>71</ele>
        <time>2025-04-21T09:02:49Z</time>
      </trkpt>
      <trkpt lat="50.60686" lon="5.62091">
        <ele>71</ele>
        <time>2025-04-21T09:03:11Z</time>
      </trkpt>
      <trkpt lat="50.60663" lon="5.6215">
        <ele>72</ele>
        <time>2025-04-21T09:03:21Z</time>
      </trkpt>
      <trkpt lat="50.60504" lon="5.62638">
        <ele>70</ele>
        <time>2025-04-21T09:04:42Z</time>
      </trkpt>
      <trkpt lat="50.60464" lon="5.62767">
        <ele>70</ele>
        <time>2025-04-21T09:05:04Z</time>
      </trkpt>
      <trkpt lat="50.60446" lon="5.62758">
        <ele>70</ele>
        <time>2025-04-21T09:05:08Z</time>
      </trkpt>
      <trkpt lat="50.60441" lon="5.62762">
        <ele>70</ele>
        <time>2025-04-21T09:05:09Z</time>
      </trkpt>
      <trkpt lat="50.60425" lon="5.62801">
        <ele>70</ele>
        <time>2025-04-21T09:05:16Z</time>
      </trkpt>
      <trkpt lat="50.60396" lon="5.62964">
        <ele>70</ele>
        <time>2025-04-21T09:05:41Z</time>
      </trkpt>
      <trkpt lat="50.6035" lon="5.63151">
        <ele>71</ele>
        <time>2025-04-21T09:06:11Z</time>
      </trkpt>
      <trkpt lat="50.60335" lon="5.6325">
        <ele>70</ele>
        <time>2025-04-21T09:06:26Z</time>
      </trkpt>
      <trkpt lat="50.60322" lon="5.63363">
        <ele>72</ele>
        <time>2025-04-21T09:06:43Z</time>
      </trkpt>
      <trkpt lat="50.60317" lon="5.63439">
        <ele>73</ele>
        <time>2025-04-21T09:06:54Z</time>
      </trkpt>
      <trkpt lat="50.60318" lon="5.63457">
        <ele>73</ele>
        <time>2025-04-21T09:06:57Z</time>
      </trkpt>
      <trkpt lat="50.60331" lon="5.63503">
        <ele>74</ele>
        <time>2025-04-21T09:07:05Z</time>
      </trkpt>
      <trkpt lat="50.60346" lon="5.63505">
        <ele>75</ele>
        <time>2025-04-21T09:07:08Z</time>
      </trkpt>
      <trkpt lat="50.60355" lon="5.63523">
        <ele>76</ele>
        <time>2025-04-21T09:07:11Z</time>
      </trkpt>
      <trkpt lat="50.60354" lon="5.6355">
        <ele>77</ele>
        <time>2025-04-21T09:07:15Z</time>
      </trkpt>
      <trkpt lat="50.60348" lon="5.63563">
        <ele>78</ele>
        <time>2025-04-21T09:07:18Z</time>
      </trkpt>
      <trkpt lat="50.60351" lon="5.63584">
        <ele>79</ele>
        <time>2025-04-21T09:07:21Z</time>
      </trkpt>
      <trkpt lat="50.60373" lon="5.63602">
        <ele>81</ele>
        <time>2025-04-21T09:07:27Z</time>
      </trkpt>
      <trkpt lat="50.60402" lon="5.63632">
        <ele>83</ele>
        <time>2025-04-21T09:07:35Z</time>
      </trkpt>
      <trkpt lat="50.60448" lon="5.63619">
        <ele>84</ele>
        <time>2025-04-21T09:07:46Z</time>
      </trkpt>
      <trkpt lat="50.60486" lon="5.63582">
        <ele>83</ele>
        <time>2025-04-21T09:07:56Z</time>
      </trkpt>
      <trkpt lat="50.60536" lon="5.63634">
        <ele>87</ele>
        <time>2025-04-21T09:08:10Z</time>
      </trkpt>
      <trkpt lat="50.60618" lon="5.63705">
        <ele>93</ele>
        <time>2025-04-21T09:08:32Z</time>
      </trkpt>
      <trkpt lat="50.60628" lon="5.63689">
        <ele>93</ele>
        <time>2025-04-21T09:08:35Z</time>
      </trkpt>
      <trkpt lat="50.60642" lon="5.63685">
        <ele>93</ele>
        <time>2025-04-21T09:08:39Z</time>
      </trkpt>
      <trkpt lat="50.60694" lon="5.6368">
        <ele>95</ele>
        <time>2025-04-21T09:08:51Z</time>
      </trkpt>
      <trkpt lat="50.60772" lon="5.63648">
        <ele>96</ele>
        <time>2025-04-21T09:09:10Z</time>
      </trkpt>
      <trkpt lat="50.60823" lon="5.6362">
        <ele>96</ele>
        <time>2025-04-21T09:09:22Z</time>
      </trkpt>
      <trkpt lat="50.6085" lon="5.63595">
        <ele>95</ele>
        <time>2025-04-21T09:09:30Z</time>
      </trkpt>
      <trkpt lat="50.60904" lon="5.63528">
        <ele>93</ele>
        <time>2025-04-21T09:09:46Z</time>
      </trkpt>
      <trkpt lat="50.60913" lon="5.63538">
        <ele>94</ele>
        <time>2025-04-21T09:09:48Z</time>
      </trkpt>
      <trkpt lat="50.60937" lon="5.63498">
        <ele>92</ele>
        <time>2025-04-21T09:09:56Z</time>
      </trkpt>
      <trkpt lat="50.60972" lon="5.63538">
        <ele>94</ele>
        <time>2025-04-21T09:10:07Z</time>
      </trkpt>
      <trkpt lat="50.6105" lon="5.63677">
        <ele>96</ele>
        <time>2025-04-21T09:10:34Z</time>
      </trkpt>
      <trkpt lat="50.61087" lon="5.637">
        <ele>95</ele>
        <time>2025-04-21T09:10:43Z</time>
      </trkpt>
      <trkpt lat="50.61114" lon="5.63737">
        <ele>99</ele>
        <time>2025-04-21T09:10:52Z</time>
      </trkpt>
      <trkpt lat="50.61133" lon="5.63785">
        <ele>101</ele>
        <time>2025-04-21T09:11:00Z</time>
      </trkpt>
      <trkpt lat="50.61144" lon="5.63823">
        <ele>102</ele>
        <time>2025-04-21T09:11:06Z</time>
      </trkpt>
      <trkpt lat="50.6115" lon="5.63879">
        <ele>103</ele>
        <time>2025-04-21T09:11:15Z</time>
      </trkpt>
      <trkpt lat="50.61168" lon="5.63929">
        <ele>104</ele>
        <time>2025-04-21T09:11:23Z</time>
      </trkpt>
      <trkpt lat="50.61198" lon="5.63945">
        <ele>109</ele>
        <time>2025-04-21T09:11:31Z</time>
      </trkpt>
      <trkpt lat="50.61207" lon="5.63959">
        <ele>111</ele>
        <time>2025-04-21T09:11:34Z</time>
      </trkpt>
      <trkpt lat="50.61212" lon="5.63986">
        <ele>112</ele>
        <time>2025-04-21T09:11:38Z</time>
      </trkpt>
      <trkpt lat="50.6121" lon="5.64011">
        <ele>113</ele>
        <time>2025-04-21T09:11:41Z</time>
      </trkpt>
      <trkpt lat="50.612" lon="5.64069">
        <ele>115</ele>
        <time>2025-04-21T09:11:50Z</time>
      </trkpt>
      <trkpt lat="50.61197" lon="5.64117">
        <ele>118</ele>
        <time>2025-04-21T09:11:58Z</time>
      </trkpt>
      <trkpt lat="50.61188" lon="5.64156">
        <ele>119</ele>
        <time>2025-04-21T09:12:04Z</time>
      </trkpt>
      <trkpt lat="50.61174" lon="5.64201">
        <ele>120</ele>
        <time>2025-04-21T09:12:11Z</time>
      </trkpt>
      <trkpt lat="50.61161" lon="5.64222">
        <ele>120</ele>
        <time>2025-04-21T09:12:15Z</time>
      </trkpt>
      <trkpt lat="50.61165" lon="5.64238">
        <ele>122</ele>
        <time>2025-04-21T09:12:18Z</time>
      </trkpt>
      <trkpt lat="50.61169" lon="5.64271">
        <ele>126</ele>
        <time>2025-04-21T09:12:23Z</time>
      </trkpt>
      <trkpt lat="50.61174" lon="5.64283">
        <ele>128</ele>
        <time>2025-04-21T09:12:25Z</time>
      </trkpt>
      <trkpt lat="50.61188" lon="5.64296">
        <ele>132</ele>
        <time>2025-04-21T09:12:29Z</time>
      </trkpt>
      <trkpt lat="50.61197" lon="5.64318">
        <ele>135</ele>
        <time>2025-04-21T09:12:33Z</time>
      </trkpt>
      <trkpt lat="50.61225" lon="5.64347">
        <ele>142</ele>
        <time>2025-04-21T09:12:41Z</time>
      </trkpt>
      <trkpt lat="50.61261" lon="5.64372">
        <ele>150</ele>
        <time>2025-04-21T09:12:50Z</time>
      </trkpt>
      <trkpt lat="50.61312" lon="5.64423">
        <ele>165</ele>
        <time>2025-04-21T09:13:04Z</time>
      </trkpt>
      <trkpt lat="50.61341" lon="5.64448">
        <ele>173</ele>
        <time>2025-04-21T09:13:12Z</time>
      </trkpt>
      <trkpt lat="50.61354" lon="5.64479">
        <ele>177</ele>
        <time>2025-04-21T09:13:17Z</time>
      </trkpt>
      <trkpt lat="50.61364" lon="5.64586">
        <ele>187</ele>
        <time>2025-04-21T09:13:33Z</time>
      </trkpt>
      <trkpt lat="50.61371" lon="5.64612">
        <ele>189</ele>
        <time>2025-04-21T09:13:37Z</time>
      </trkpt>
      <trkpt lat="50.61395" lon="5.64643">
        <ele>196</ele>
        <time>2025-04-21T09:13:45Z</time>
      </trkpt>
      <trkpt lat="50.61422" lon="5.64665">
        <ele>204</ele>
        <time>2025-04-21T09:13:52Z</time>
      </trkpt>
      <trkpt lat="50.6145" lon="5.64717">
        <ele>211</ele>
        <time>2025-04-21T09:14:02Z</time>
      </trkpt>
      <trkpt lat="50.6146" lon="5.6472">
        <ele>213</ele>
        <time>2025-04-21T09:14:04Z</time>
      </trkpt>
      <trkpt lat="50.61478" lon="5.64701">
        <ele>215</ele>
        <time>2025-04-21T09:14:09Z</time>
      </trkpt>
      <trkpt lat="50.61604" lon="5.6466">
        <ele>225</ele>
        <time>2025-04-21T09:14:39Z</time>
      </trkpt>
      <trkpt lat="50.616" lon="5.64716">
        <ele>226</ele>
        <time>2025-04-21T09:14:48Z</time>
      </trkpt>
      <trkpt lat="50.61604" lon="5.64781">
        <ele>228</ele>
        <time>2025-04-21T09:14:57Z</time>
      </trkpt>
      <trkpt lat="50.61595" lon="5.64864">
        <ele>230</ele>
        <time>2025-04-21T09:15:10Z</time>
      </trkpt>
      <trkpt lat="50.6163" lon="5.65106">
        <ele>232</ele>
        <time>2025-04-21T09:15:47Z</time>
      </trkpt>
      <trkpt lat="50.61642" lon="5.65163">
        <ele>232</ele>
        <time>2025-04-21T09:15:55Z</time>
      </trkpt>
      <trkpt lat="50.61689" lon="5.65331">
        <ele>233</ele>
        <time>2025-04-21T09:16:23Z</time>
      </trkpt>
      <trkpt lat="50.61794" lon="5.65577">
        <ele>233</ele>
        <time>2025-04-21T09:17:07Z</time>
      </trkpt>
      <trkpt lat="50.61835" lon="5.65611">
        <ele>235</ele>
        <time>2025-04-21T09:17:17Z</time>
      </trkpt>
      <trkpt lat="50.61816" lon="5.65665">
        <ele>234</ele>
        <time>2025-04-21T09:17:27Z</time>
      </trkpt>
      <trkpt lat="50.61803" lon="5.65681">
        <ele>233</ele>
        <time>2025-04-21T09:17:30Z</time>
      </trkpt>
      <trkpt lat="50.61686" lon="5.66018">
        <ele>235</ele>
        <time>2025-04-21T09:18:27Z</time>
      </trkpt>
      <trkpt lat="50.61644" lon="5.66126">
        <ele>240</ele>
        <time>2025-04-21T09:18:46Z</time>
      </trkpt>
      <trkpt lat="50.61644" lon="5.66149">
        <ele>240</ele>
        <time>2025-04-21T09:18:50Z</time>
      </trkpt>
      <trkpt lat="50.61636" lon="5.6616">
        <ele>240</ele>
        <time>2025-04-21T09:18:52Z</time>
      </trkpt>
      <trkpt lat="50.61598" lon="5.66265">
        <ele>242</ele>
        <time>2025-04-21T09:19:10Z</time>
      </trkpt>
      <trkpt lat="50.61566" lon="5.66345">
        <ele>246</ele>
        <time>2025-04-21T09:19:24Z</time>
      </trkpt>
      <trkpt lat="50.61524" lon="5.66439">
        <ele>247</ele>
        <time>2025-04-21T09:19:41Z</time>
      </trkpt>
      <trkpt lat="50.61156" lon="5.67102">
        <ele>256</ele>
        <time>2025-04-21T09:21:51Z</time>
      </trkpt>
      <trkpt lat="50.61133" lon="5.67161">
        <ele>257</ele>
        <time>2025-04-21T09:22:02Z</time>
      </trkpt>
      <trkpt lat="50.61115" lon="5.67216">
        <ele>256</ele>
        <time>2025-04-21T09:22:11Z</time>
      </trkpt>
      <trkpt lat="50.61097" lon="5.67308">
        <ele>257</ele>
        <time>2025-04-21T09:22:25Z</time>
      </trkpt>
      <trkpt lat="50.61088" lon="5.67404">
        <ele>258</ele>
        <time>2025-04-21T09:22:40Z</time>
      </trkpt>
      <trkpt lat="50.61088" lon="5.67469">
        <ele>259</ele>
        <time>2025-04-21T09:22:49Z</time>
      </trkpt>
      <trkpt lat="50.61094" lon="5.67549">
        <ele>260</ele>
        <time>2025-04-21T09:23:01Z</time>
      </trkpt>
      <trkpt lat="50.61107" lon="5.67621">
        <ele>260</ele>
        <time>2025-04-21T09:23:12Z</time>
      </trkpt>
      <trkpt lat="50.61127" lon="5.67692">
        <ele>261</ele>
        <time>2025-04-21T09:23:24Z</time>
      </trkpt>
      <trkpt lat="50.61162" lon="5.67779">
        <ele>263</ele>
        <time>2025-04-21T09:23:39Z</time>
      </trkpt>
      <trkpt lat="50.61218" lon="5.67879">
        <ele>263</ele>
        <time>2025-04-21T09:23:59Z</time>
      </trkpt>
      <trkpt lat="50.61428" lon="5.68211">
        <ele>261</ele>
        <time>2025-04-21T09:25:08Z</time>
      </trkpt>
      <trkpt lat="50.61452" lon="5.68236">
        <ele>261</ele>
        <time>2025-04-21T09:25:15Z</time>
      </trkpt>
      <trkpt lat="50.61468" lon="5.68236">
        <ele>261</ele>
        <time>2025-04-21T09:25:19Z</time>
      </trkpt>
      <trkpt lat="50.61469" lon="5.68244">
        <ele>261</ele>
        <time>2025-04-21T09:25:20Z</time>
      </trkpt>
      <trkpt lat="50.61485" lon="5.68269">
        <ele>261</ele>
        <time>2025-04-21T09:25:25Z</time>
      </trkpt>
      <trkpt lat="50.61481" lon="5.68286">
        <ele>261</ele>
        <time>2025-04-21T09:25:28Z</time>
      </trkpt>
      <trkpt lat="50.61512" lon="5.68332">
        <ele>261</ele>
        <time>2025-04-21T09:25:38Z</time>
      </trkpt>
      <trkpt lat="50.61515" lon="5.68348">
        <ele>261</ele>
        <time>2025-04-21T09:25:40Z</time>
      </trkpt>
      <trkpt lat="50.61662" lon="5.68581">
        <ele>261</ele>
        <time>2025-04-21T09:26:29Z</time>
      </trkpt>
      <trkpt lat="50.61672" lon="5.68589">
        <ele>261</ele>
        <time>2025-04-21T09:26:32Z</time>
      </trkpt>
      <trkpt lat="50.61675" lon="5.68605">
        <ele>261</ele>
        <time>2025-04-21T09:26:34Z</time>
      </trkpt>
      <trkpt lat="50.61689" lon="5.68618">
        <ele>261</ele>
        <time>2025-04-21T09:26:38Z</time>
      </trkpt>
      <trkpt lat="50.61757" lon="5.68735">
        <ele>262</ele>
        <time>2025-04-21T09:27:01Z</time>
      </trkpt>
      <trkpt lat="50.61818" lon="5.68853">
        <ele>262</ele>
        <time>2025-04-21T09:27:24Z</time>
      </trkpt>
      <trkpt lat="50.62058" lon="5.69424">
        <ele>260</ele>
        <time>2025-04-21T09:29:05Z</time>
      </trkpt>
      <trkpt lat="50.62058" lon="5.69434">
        <ele>260</ele>
        <time>2025-04-21T09:29:07Z</time>
      </trkpt>
      <trkpt lat="50.62068" lon="5.69447">
        <ele>260</ele>
        <time>2025-04-21T09:29:10Z</time>
      </trkpt>
      <trkpt lat="50.6227" lon="5.69925">
        <ele>263</ele>
        <time>2025-04-21T09:30:35Z</time>
      </trkpt>
      <trkpt lat="50.6229" lon="5.69985">
        <ele>262</ele>
        <time>2025-04-21T09:30:45Z</time>
      </trkpt>
      <trkpt lat="50.62301" lon="5.69994">
        <ele>262</ele>
        <time>2025-04-21T09:30:48Z</time>
      </trkpt>
      <trkpt lat="50.62359" lon="5.70155">
        <ele>263</ele>
        <time>2025-04-21T09:31:15Z</time>
      </trkpt>
      <trkpt lat="50.627" lon="5.7127">
        <ele>272</ele>
        <time>2025-04-21T09:34:19Z</time>
      </trkpt>
      <trkpt lat="50.62904" lon="5.71922">
        <ele>266</ele>
        <time>2025-04-21T09:36:06Z</time>
      </trkpt>
      <trkpt lat="50.63133" lon="5.72911">
        <ele>274</ele>
        <time>2025-04-21T09:38:42Z</time>
      </trkpt>
      <trkpt lat="50.63145" lon="5.72956">
        <ele>274</ele>
        <time>2025-04-21T09:38:50Z</time>
      </trkpt>
      <trkpt lat="50.63166" lon="5.73005">
        <ele>273</ele>
        <time>2025-04-21T09:38:58Z</time>
      </trkpt>
      <trkpt lat="50.63195" lon="5.73122">
        <ele>274</ele>
        <time>2025-04-21T09:39:17Z</time>
      </trkpt>
      <trkpt lat="50.63195" lon="5.73196">
        <ele>275</ele>
        <time>2025-04-21T09:39:28Z</time>
      </trkpt>
      <trkpt lat="50.63205" lon="5.7325">
        <ele>275</ele>
        <time>2025-04-21T09:39:36Z</time>
      </trkpt>
      <trkpt lat="50.6326" lon="5.73484">
        <ele>276</ele>
        <time>2025-04-21T09:40:13Z</time>
      </trkpt>
      <trkpt lat="50.63277" lon="5.73541">
        <ele>277</ele>
        <time>2025-04-21T09:40:23Z</time>
      </trkpt>
      <trkpt lat="50.63333" lon="5.73783">
        <ele>278</ele>
        <time>2025-04-21T09:41:01Z</time>
      </trkpt>
      <trkpt lat="50.63499" lon="5.74532">
        <ele>278</ele>
        <time>2025-04-21T09:42:58Z</time>
      </trkpt>
      <trkpt lat="50.63509" lon="5.74543">
        <ele>278</ele>
        <time>2025-04-21T09:43:01Z</time>
      </trkpt>
      <trkpt lat="50.63513" lon="5.74558">
        <ele>278</ele>
        <time>2025-04-21T09:43:04Z</time>
      </trkpt>
      <trkpt lat="50.63511" lon="5.74575">
        <ele>278</ele>
        <time>2025-04-21T09:43:06Z</time>
      </trkpt>
      <trkpt lat="50.63516" lon="5.74605">
        <ele>278</ele>
        <time>2025-04-21T09:43:11Z</time>
      </trkpt>
      <trkpt lat="50.63636" lon="5.75131">
        <ele>277</ele>
        <time>2025-04-21T09:44:33Z</time>
      </trkpt>
      <trkpt lat="50.63665" lon="5.75272">
        <ele>278</ele>
        <time>2025-04-21T09:44:55Z</time>
      </trkpt>
      <trkpt lat="50.63681" lon="5.75365">
        <ele>278</ele>
        <time>2025-04-21T09:45:10Z</time>
      </trkpt>
      <trkpt lat="50.63705" lon="5.75545">
        <ele>279</ele>
        <time>2025-04-21T09:45:37Z</time>
      </trkpt>
      <trkpt lat="50.64009" lon="5.78272">
        <ele>299</ele>
        <time>2025-04-21T09:52:27Z</time>
      </trkpt>
      <trkpt lat="50.64041" lon="5.78413">
        <ele>299</ele>
        <time>2025-04-21T09:52:49Z</time>
      </trkpt>
      <trkpt lat="50.64231" lon="5.79058">
        <ele>305</ele>
        <time>2025-04-21T09:54:35Z</time>
      </trkpt>
      <trkpt lat="50.64239" lon="5.79077">
        <ele>305</ele>
        <time>2025-04-21T09:54:38Z</time>
      </trkpt>
      <trkpt lat="50.64247" lon="5.79114">
        <ele>305</ele>
        <time>2025-04-21T09:54:44Z</time>
      </trkpt>
      <trkpt lat="50.64287" lon="5.7922">
        <ele>307</ele>
        <time>2025-04-21T09:55:02Z</time>
      </trkpt>
      <trkpt lat="50.64305" lon="5.79252">
        <ele>308</ele>
        <time>2025-04-21T09:55:08Z</time>
      </trkpt>
      <trkpt lat="50.64335" lon="5.79294">
        <ele>309</ele>
        <time>2025-04-21T09:55:18Z</time>
      </trkpt>
      <trkpt lat="50.64384" lon="5.79338">
        <ele>310</ele>
        <time>2025-04-21T09:55:31Z</time>
      </trkpt>
      <trkpt lat="50.64496" lon="5.79422">
        <ele>309</ele>
        <time>2025-04-21T09:56:00Z</time>
      </trkpt>
      <trkpt lat="50.64567" lon="5.79484">
        <ele>309</ele>
        <time>2025-04-21T09:56:19Z</time>
      </trkpt>
      <trkpt lat="50.64585" lon="5.79504">
        <ele>310</ele>
        <time>2025-04-21T09:56:24Z</time>
      </trkpt>
      <trkpt lat="50.64645" lon="5.79592">
        <ele>309</ele>
        <time>2025-04-21T09:56:43Z</time>
      </trkpt>
      <trkpt lat="50.64668" lon="5.79632">
        <ele>309</ele>
        <time>2025-04-21T09:56:51Z</time>
      </trkpt>
      <trkpt lat="50.64699" lon="5.79706">
        <ele>309</ele>
        <time>2025-04-21T09:57:04Z</time>
      </trkpt>
      <trkpt lat="50.64708" lon="5.79714">
        <ele>308</ele>
        <time>2025-04-21T09:57:07Z</time>
      </trkpt>
      <trkpt lat="50.64707" lon="5.79728">
        <ele>309</ele>
        <time>2025-04-21T09:57:09Z</time>
      </trkpt>
      <trkpt lat="50.64761" lon="5.79909">
        <ele>311</ele>
        <time>2025-04-21T09:57:38Z</time>
      </trkpt>
      <trkpt lat="50.65068" lon="5.80975">
        <ele>318</ele>
        <time>2025-04-21T10:00:32Z</time>
      </trkpt>
      <trkpt lat="50.65073" lon="5.80985">
        <ele>318</ele>
        <time>2025-04-21T10:00:34Z</time>
      </trkpt>
      <trkpt lat="50.6508" lon="5.80987">
        <ele>318</ele>
        <time>2025-04-21T10:00:35Z</time>
      </trkpt>
      <trkpt lat="50.6508" lon="5.81014">
        <ele>318</ele>
        <time>2025-04-21T10:00:39Z</time>
      </trkpt>
      <trkpt lat="50.65188" lon="5.81394">
        <ele>318</ele>
        <time>2025-04-21T10:01:41Z</time>
      </trkpt>
      <trkpt lat="50.6521" lon="5.81516">
        <ele>317</ele>
        <time>2025-04-21T10:02:00Z</time>
      </trkpt>
      <trkpt lat="50.65214" lon="5.81625">
        <ele>317</ele>
        <time>2025-04-21T10:02:16Z</time>
      </trkpt>
      <trkpt lat="50.65213" lon="5.81689">
        <ele>317</ele>
        <time>2025-04-21T10:02:25Z</time>
      </trkpt>
      <trkpt lat="50.65203" lon="5.81799">
        <ele>315</ele>
        <time>2025-04-21T10:02:42Z</time>
      </trkpt>
      <trkpt lat="50.65192" lon="5.81855">
        <ele>315</ele>
        <time>2025-04-21T10:02:50Z</time>
      </trkpt>
      <trkpt lat="50.65171" lon="5.81932">
        <ele>316</ele>
        <time>2025-04-21T10:03:03Z</time>
      </trkpt>
      <trkpt lat="50.6515" lon="5.81998">
        <ele>316</ele>
        <time>2025-04-21T10:03:14Z</time>
      </trkpt>
      <trkpt lat="50.65109" lon="5.82099">
        <ele>318</ele>
        <time>2025-04-21T10:03:32Z</time>
      </trkpt>
      <trkpt lat="50.65014" lon="5.82353">
        <ele>316</ele>
        <time>2025-04-21T10:04:15Z</time>
      </trkpt>
      <trkpt lat="50.64928" lon="5.82599">
        <ele>319</ele>
        <time>2025-04-21T10:04:57Z</time>
      </trkpt>
      <trkpt lat="50.64908" lon="5.82675">
        <ele>318</ele>
        <time>2025-04-21T10:05:09Z</time>
      </trkpt>
      <trkpt lat="50.64908" lon="5.82776">
        <ele>317</ele>
        <time>2025-04-21T10:05:24Z</time>
      </trkpt>
      <trkpt lat="50.64908" lon="5.82867">
        <ele>317</ele>
        <time>2025-04-21T10:05:37Z</time>
      </trkpt>
      <trkpt lat="50.64931" lon="5.83066">
        <ele>317</ele>
        <time>2025-04-21T10:06:07Z</time>
      </trkpt>
      <trkpt lat="50.64932" lon="5.83081">
        <ele>318</ele>
        <time>2025-04-21T10:06:10Z</time>
      </trkpt>
      <trkpt lat="50.64922" lon="5.83121">
        <ele>319</ele>
        <time>2025-04-21T10:06:16Z</time>
      </trkpt>
      <trkpt lat="50.64924" lon="5.83153">
        <ele>320</ele>
        <time>2025-04-21T10:06:21Z</time>
      </trkpt>
      <trkpt lat="50.64936" lon="5.83167">
        <ele>320</ele>
        <time>2025-04-21T10:06:24Z</time>
      </trkpt>
      <trkpt lat="50.64937" lon="5.83176">
        <ele>320</ele>
        <time>2025-04-21T10:06:26Z</time>
      </trkpt>
      <trkpt lat="50.64934" lon="5.83286">
        <ele>322</ele>
        <time>2025-04-21T10:06:42Z</time>
      </trkpt>
      <trkpt lat="50.64925" lon="5.83379">
        <ele>324</ele>
        <time>2025-04-21T10:06:56Z</time>
      </trkpt>
      <trkpt lat="50.64903" lon="5.83469">
        <ele>323</ele>
        <time>2025-04-21T10:07:10Z</time>
      </trkpt>
      <trkpt lat="50.64811" lon="5.83727">
        <ele>312</ele>
        <time>2025-04-21T10:07:54Z</time>
      </trkpt>
      <trkpt lat="50.64762" lon="5.839">
        <ele>313</ele>
        <time>2025-04-21T10:08:22Z</time>
      </trkpt>
      <trkpt lat="50.6475" lon="5.83982">
        <ele>313</ele>
        <time>2025-04-21T10:08:34Z</time>
      </trkpt>
      <trkpt lat="50.64751" lon="5.84022">
        <ele>311</ele>
        <time>2025-04-21T10:08:40Z</time>
      </trkpt>
      <trkpt lat="50.64759" lon="5.84547">
        <ele>299</ele>
        <time>2025-04-21T10:09:58Z</time>
      </trkpt>
      <trkpt lat="50.64744" lon="5.84648">
        <ele>296</ele>
        <time>2025-04-21T10:10:13Z</time>
      </trkpt>
      <trkpt lat="50.64655" lon="5.85018">
        <ele>295</ele>
        <time>2025-04-21T10:11:12Z</time>
      </trkpt>
      <trkpt lat="50.64647" lon="5.85075">
        <ele>296</ele>
        <time>2025-04-21T10:11:21Z</time>
      </trkpt>
      <trkpt lat="50.64641" lon="5.85217">
        <ele>295</ele>
        <time>2025-04-21T10:11:42Z</time>
      </trkpt>
      <trkpt lat="50.6466" lon="5.85326">
        <ele>296</ele>
        <time>2025-04-21T10:11:59Z</time>
      </trkpt>
      <trkpt lat="50.64674" lon="5.85394">
        <ele>296</ele>
        <time>2025-04-21T10:12:09Z</time>
      </trkpt>
      <trkpt lat="50.64702" lon="5.85472">
        <ele>293</ele>
        <time>2025-04-21T10:12:22Z</time>
      </trkpt>
      <trkpt lat="50.64726" lon="5.85518">
        <ele>290</ele>
        <time>2025-04-21T10:12:31Z</time>
      </trkpt>
      <trkpt lat="50.64763" lon="5.85575">
        <ele>286</ele>
        <time>2025-04-21T10:12:43Z</time>
      </trkpt>
      <trkpt lat="50.65087" lon="5.85995">
        <ele>282</ele>
        <time>2025-04-21T10:14:21Z</time>
      </trkpt>
      <trkpt lat="50.65119" lon="5.86049">
        <ele>281</ele>
        <time>2025-04-21T10:14:32Z</time>
      </trkpt>
      <trkpt lat="50.65155" lon="5.86141">
        <ele>281</ele>
        <time>2025-04-21T10:14:48Z</time>
      </trkpt>
      <trkpt lat="50.65191" lon="5.86252">
        <ele>280</ele>
        <time>2025-04-21T10:15:07Z</time>
      </trkpt>
      <trkpt lat="50.65252" lon="5.86631">
        <ele>279</ele>
        <time>2025-04-21T10:16:05Z</time>
      </trkpt>
      <trkpt lat="50.65324" lon="5.87044">
        <ele>277</ele>
        <time>2025-04-21T10:17:08Z</time>
      </trkpt>
      <trkpt lat="50.65367" lon="5.87337">
        <ele>272</ele>
        <time>2025-04-21T10:17:52Z</time>
      </trkpt>
      <trkpt lat="50.65381" lon="5.87387">
        <ele>270</ele>
        <time>2025-04-21T10:18:01Z</time>
      </trkpt>
      <trkpt lat="50.65424" lon="5.87508">
        <ele>270</ele>
        <time>2025-04-21T10:18:21Z</time>
      </trkpt>
      <trkpt lat="50.65463" lon="5.87558">
        <ele>273</ele>
        <time>2025-04-21T10:18:33Z</time>
      </trkpt>
      <trkpt lat="50.6552" lon="5.8761">
        <ele>275</ele>
        <time>2025-04-21T10:18:48Z</time>
      </trkpt>
      <trkpt lat="50.65582" lon="5.87639">
        <ele>272</ele>
        <time>2025-04-21T10:19:03Z</time>
      </trkpt>
      <trkpt lat="50.65643" lon="5.87645">
        <ele>268</ele>
        <time>2025-04-21T10:19:18Z</time>
      </trkpt>
      <trkpt lat="50.65695" lon="5.87636">
        <ele>267</ele>
        <time>2025-04-21T10:19:30Z</time>
      </trkpt>
      <trkpt lat="50.65731" lon="5.8762">
        <ele>267</ele>
        <time>2025-04-21T10:19:39Z</time>
      </trkpt>
      <trkpt lat="50.66139" lon="5.87357">
        <ele>260</ele>
        <time>2025-04-21T10:21:21Z</time>
      </trkpt>
      <trkpt lat="50.66285" lon="5.87269">
        <ele>256</ele>
        <time>2025-04-21T10:21:58Z</time>
      </trkpt>
      <trkpt lat="50.6633" lon="5.87232">
        <ele>256</ele>
        <time>2025-04-21T10:22:10Z</time>
      </trkpt>
      <trkpt lat="50.66401" lon="5.87147">
        <ele>256</ele>
        <time>2025-04-21T10:22:31Z</time>
      </trkpt>
      <trkpt lat="50.66453" lon="5.87073">
        <ele>255</ele>
        <time>2025-04-21T10:22:47Z</time>
      </trkpt>
      <trkpt lat="50.66495" lon="5.86982">
        <ele>251</ele>
        <time>2025-04-21T10:23:04Z</time>
      </trkpt>
      <trkpt lat="50.66518" lon="5.86919">
        <ele>250</ele>
        <time>2025-04-21T10:23:14Z</time>
      </trkpt>
      <trkpt lat="50.66537" lon="5.86824">
        <ele>249</ele>
        <time>2025-04-21T10:23:29Z</time>
      </trkpt>
      <trkpt lat="50.66556" lon="5.86728">
        <ele>247</ele>
        <time>2025-04-21T10:23:44Z</time>
      </trkpt>
      <trkpt lat="50.66625" lon="5.86237">
        <ele>245</ele>
        <time>2025-04-21T10:24:59Z</time>
      </trkpt>
      <trkpt lat="50.66644" lon="5.86132">
        <ele>243</ele>
        <time>2025-04-21T10:25:15Z</time>
      </trkpt>
      <trkpt lat="50.66657" lon="5.86078">
        <ele>243</ele>
        <time>2025-04-21T10:25:23Z</time>
      </trkpt>
      <trkpt lat="50.66698" lon="5.85973">
        <ele>244</ele>
        <time>2025-04-21T10:25:41Z</time>
      </trkpt>
      <trkpt lat="50.66744" lon="5.85875">
        <ele>243</ele>
        <time>2025-04-21T10:26:00Z</time>
      </trkpt>
      <trkpt lat="50.6681" lon="5.85787">
        <ele>240</ele>
        <time>2025-04-21T10:26:20Z</time>
      </trkpt>
      <trkpt lat="50.66871" lon="5.85731">
        <ele>237</ele>
        <time>2025-04-21T10:26:36Z</time>
      </trkpt>
      <trkpt lat="50.66931" lon="5.85695">
        <ele>235</ele>
        <time>2025-04-21T10:26:51Z</time>
      </trkpt>
      <trkpt lat="50.67017" lon="5.85666">
        <ele>234</ele>
        <time>2025-04-21T10:27:12Z</time>
      </trkpt>
      <trkpt lat="50.67262" lon="5.85636">
        <ele>229</ele>
        <time>2025-04-21T10:28:09Z</time>
      </trkpt>
      <trkpt lat="50.67316" lon="5.85621">
        <ele>226</ele>
        <time>2025-04-21T10:28:22Z</time>
      </trkpt>
      <trkpt lat="50.67419" lon="5.85542">
        <ele>222</ele>
        <time>2025-04-21T10:28:49Z</time>
      </trkpt>
      <trkpt lat="50.67524" lon="5.85413">
        <ele>220</ele>
        <time>2025-04-21T10:29:20Z</time>
      </trkpt>
      <trkpt lat="50.6755" lon="5.85388">
        <ele>217</ele>
        <time>2025-04-21T10:29:27Z</time>
      </trkpt>
      <trkpt lat="50.67643" lon="5.85341">
        <ele>213</ele>
        <time>2025-04-21T10:29:50Z</time>
      </trkpt>
      <trkpt lat="50.67811" lon="5.85319">
        <ele>212</ele>
        <time>2025-04-21T10:30:29Z</time>
      </trkpt>
      <trkpt lat="50.67935" lon="5.85294">
        <ele>214</ele>
        <time>2025-04-21T10:30:58Z</time>
      </trkpt>
      <trkpt lat="50.68057" lon="5.85284">
        <ele>216</ele>
        <time>2025-04-21T10:31:27Z</time>
      </trkpt>
      <trkpt lat="50.68064" lon="5.85286">
        <ele>216</ele>
        <time>2025-04-21T10:31:28Z</time>
      </trkpt>
      <trkpt lat="50.68071" lon="5.8528">
        <ele>216</ele>
        <time>2025-04-21T10:31:30Z</time>
      </trkpt>
      <trkpt lat="50.68149" lon="5.85266">
        <ele>216</ele>
        <time>2025-04-21T10:31:49Z</time>
      </trkpt>
      <trkpt lat="50.68213" lon="5.8526">
        <ele>215</ele>
        <time>2025-04-21T10:32:04Z</time>
      </trkpt>
      <trkpt lat="50.68248" lon="5.85263">
        <ele>214</ele>
        <time>2025-04-21T10:32:12Z</time>
      </trkpt>
      <trkpt lat="50.68307" lon="5.85276">
        <ele>212</ele>
        <time>2025-04-21T10:32:26Z</time>
      </trkpt>
      <trkpt lat="50.68342" lon="5.85289">
        <ele>210</ele>
        <time>2025-04-21T10:32:34Z</time>
      </trkpt>
      <trkpt lat="50.68786" lon="5.85489">
        <ele>198</ele>
        <time>2025-04-21T10:34:22Z</time>
      </trkpt>
      <trkpt lat="50.68823" lon="5.85501">
        <ele>202</ele>
        <time>2025-04-21T10:34:31Z</time>
      </trkpt>
      <trkpt lat="50.68872" lon="5.85509">
        <ele>205</ele>
        <time>2025-04-21T10:34:42Z</time>
      </trkpt>
      <trkpt lat="50.6908" lon="5.85525">
        <ele>209</ele>
        <time>2025-04-21T10:35:31Z</time>
      </trkpt>
      <trkpt lat="50.69636" lon="5.85607">
        <ele>220</ele>
        <time>2025-04-21T10:37:41Z</time>
      </trkpt>
      <trkpt lat="50.69684" lon="5.85619">
        <ele>222</ele>
        <time>2025-04-21T10:37:53Z</time>
      </trkpt>
      <trkpt lat="50.69724" lon="5.85639">
        <ele>223</ele>
        <time>2025-04-21T10:38:02Z</time>
      </trkpt>
      <trkpt lat="50.6976" lon="5.85663">
        <ele>224</ele>
        <time>2025-04-21T10:38:12Z</time>
      </trkpt>
      <trkpt lat="50.69797" lon="5.85697">
        <ele>226</ele>
        <time>2025-04-21T10:38:22Z</time>
      </trkpt>
      <trkpt lat="50.69831" lon="5.85735">
        <ele>228</ele>
        <time>2025-04-21T10:38:31Z</time>
      </trkpt>
      <trkpt lat="50.69873" lon="5.85807">
        <ele>229</ele>
        <time>2025-04-21T10:38:46Z</time>
      </trkpt>
      <trkpt lat="50.69944" lon="5.85954">
        <ele>233</ele>
        <time>2025-04-21T10:39:13Z</time>
      </trkpt>
      <trkpt lat="50.69986" lon="5.86035">
        <ele>236</ele>
        <time>2025-04-21T10:39:29Z</time>
      </trkpt>
      <trkpt lat="50.70039" lon="5.86109">
        <ele>240</ele>
        <time>2025-04-21T10:39:45Z</time>
      </trkpt>
      <trkpt lat="50.70091" lon="5.86165">
        <ele>241</ele>
        <time>2025-04-21T10:40:00Z</time>
      </trkpt>
      <trkpt lat="50.70121" lon="5.8619">
        <ele>241</ele>
        <time>2025-04-21T10:40:08Z</time>
      </trkpt>
      <trkpt lat="50.70173" lon="5.86224">
        <ele>242</ele>
        <time>2025-04-21T10:40:21Z</time>
      </trkpt>
      <trkpt lat="50.70262" lon="5.86265">
        <ele>240</ele>
        <time>2025-04-21T10:40:42Z</time>
      </trkpt>
      <trkpt lat="50.70275" lon="5.86266">
        <ele>239</ele>
        <time>2025-04-21T10:40:46Z</time>
      </trkpt>
      <trkpt lat="50.70289" lon="5.86278">
        <ele>239</ele>
        <time>2025-04-21T10:40:49Z</time>
      </trkpt>
      <trkpt lat="50.70616" lon="5.864">
        <ele>241</ele>
        <time>2025-04-21T10:42:08Z</time>
      </trkpt>
      <trkpt lat="50.7068" lon="5.8643">
        <ele>244</ele>
        <time>2025-04-21T10:42:23Z</time>
      </trkpt>
      <trkpt lat="50.70717" lon="5.86458">
        <ele>245</ele>
        <time>2025-04-21T10:42:33Z</time>
      </trkpt>
      <trkpt lat="50.70746" lon="5.86496">
        <ele>247</ele>
        <time>2025-04-21T10:42:42Z</time>
      </trkpt>
      <trkpt lat="50.70782" lon="5.86549">
        <ele>245</ele>
        <time>2025-04-21T10:42:53Z</time>
      </trkpt>
      <trkpt lat="50.70811" lon="5.86608">
        <ele>242</ele>
        <time>2025-04-21T10:43:04Z</time>
      </trkpt>
      <trkpt lat="50.70841" lon="5.86703">
        <ele>240</ele>
        <time>2025-04-21T10:43:20Z</time>
      </trkpt>
      <trkpt lat="50.70848" lon="5.86789">
        <ele>240</ele>
        <time>2025-04-21T10:43:33Z</time>
      </trkpt>
      <trkpt lat="50.70849" lon="5.8684">
        <ele>240</ele>
        <time>2025-04-21T10:43:40Z</time>
      </trkpt>
      <trkpt lat="50.70842" lon="5.86927">
        <ele>242</ele>
        <time>2025-04-21T10:43:53Z</time>
      </trkpt>
      <trkpt lat="50.70794" lon="5.87274">
        <ele>250</ele>
        <time>2025-04-21T10:44:46Z</time>
      </trkpt>
      <trkpt lat="50.70786" lon="5.87392">
        <ele>254</ele>
        <time>2025-04-21T10:45:03Z</time>
      </trkpt>
      <trkpt lat="50.70786" lon="5.87572">
        <ele>257</ele>
        <time>2025-04-21T10:45:30Z</time>
      </trkpt>
      <trkpt lat="50.70791" lon="5.87649">
        <ele>258</ele>
        <time>2025-04-21T10:45:41Z</time>
      </trkpt>
      <trkpt lat="50.70807" lon="5.87793">
        <ele>261</ele>
        <time>2025-04-21T10:46:03Z</time>
      </trkpt>
      <trkpt lat="50.70829" lon="5.87918">
        <ele>263</ele>
        <time>2025-04-21T10:46:22Z</time>
      </trkpt>
      <trkpt lat="50.70865" lon="5.88045">
        <ele>266</ele>
        <time>2025-04-21T10:46:43Z</time>
      </trkpt>
      <trkpt lat="50.70914" lon="5.88166">
        <ele>272</ele>
        <time>2025-04-21T10:47:04Z</time>
      </trkpt>
      <trkpt lat="50.70942" lon="5.88219">
        <ele>274</ele>
        <time>2025-04-21T10:47:14Z</time>
      </trkpt>
      <trkpt lat="50.70982" lon="5.88278">
        <ele>278</ele>
        <time>2025-04-21T10:47:27Z</time>
      </trkpt>
      <trkpt lat="50.71081" lon="5.8839">
        <ele>276</ele>
        <time>2025-04-21T10:47:55Z</time>
      </trkpt>
      <trkpt lat="50.71137" lon="5.88443">
        <ele>272</ele>
        <time>2025-04-21T10:48:11Z</time>
      </trkpt>
      <trkpt lat="50.71373" lon="5.88687">
        <ele>263</ele>
        <time>2025-04-21T10:49:17Z</time>
      </trkpt>
      <trkpt lat="50.71494" lon="5.88843">
        <ele>262</ele>
        <time>2025-04-21T10:49:53Z</time>
      </trkpt>
      <trkpt lat="50.71587" lon="5.89002">
        <ele>256</ele>
        <time>2025-04-21T10:50:25Z</time>
      </trkpt>
      <trkpt lat="50.71732" lon="5.89269">
        <ele>255</ele>
        <time>2025-04-21T10:51:17Z</time>
      </trkpt>
      <trkpt lat="50.71769" lon="5.89333">
        <ele>249</ele>
        <time>2025-04-21T10:51:30Z</time>
      </trkpt>
      <trkpt lat="50.71816" lon="5.89394">
        <ele>244</ele>
        <time>2025-04-21T10:51:44Z</time>
      </trkpt>
      <trkpt lat="50.71877" lon="5.89454">
        <ele>243</ele>
        <time>2025-04-21T10:52:01Z</time>
      </trkpt>
      <trkpt lat="50.72006" lon="5.89538">
        <ele>240</ele>
        <time>2025-04-21T10:52:33Z</time>
      </trkpt>
      <trkpt lat="50.72102" lon="5.89588">
        <ele>237</ele>
        <time>2025-04-21T10:52:57Z</time>
      </trkpt>
      <trkpt lat="50.72133" lon="5.89618">
        <ele>236</ele>
        <time>2025-04-21T10:53:06Z</time>
      </trkpt>
      <trkpt lat="50.72165" lon="5.8966">
        <ele>236</ele>
        <time>2025-04-21T10:53:15Z</time>
      </trkpt>
      <trkpt lat="50.72206" lon="5.89731">
        <ele>235</ele>
        <time>2025-04-21T10:53:29Z</time>
      </trkpt>
      <trkpt lat="50.72228" lon="5.89794">
        <ele>236</ele>
        <time>2025-04-21T10:53:40Z</time>
      </trkpt>
      <trkpt lat="50.72247" lon="5.89899">
        <ele>238</ele>
        <time>2025-04-21T10:53:56Z</time>
      </trkpt>
      <trkpt lat="50.72251" lon="5.89964">
        <ele>237</ele>
        <time>2025-04-21T10:54:06Z</time>
      </trkpt>
      <trkpt lat="50.7225" lon="5.90009">
        <ele>237</ele>
        <time>2025-04-21T10:54:13Z</time>
      </trkpt>
      <trkpt lat="50.72241" lon="5.90082">
        <ele>233</ele>
        <time>2025-04-21T10:54:24Z</time>
      </trkpt>
      <trkpt lat="50.72216" lon="5.90181">
        <ele>229</ele>
        <time>2025-04-21T10:54:39Z</time>
      </trkpt>
      <trkpt lat="50.72196" lon="5.9023">
        <ele>228</ele>
        <time>2025-04-21T10:54:48Z</time>
      </trkpt>
      <trkpt lat="50.72048" lon="5.90479">
        <ele>219</ele>
        <time>2025-04-21T10:55:38Z</time>
      </trkpt>
      <trkpt lat="50.71907" lon="5.90724">
        <ele>224</ele>
        <time>2025-04-21T10:56:27Z</time>
      </trkpt>
      <trkpt lat="50.7189" lon="5.90768">
        <ele>222</ele>
        <time>2025-04-21T10:56:35Z</time>
      </trkpt>
      <trkpt lat="50.71872" lon="5.90825">
        <ele>221</ele>
        <time>2025-04-21T10:56:44Z</time>
      </trkpt>
      <trkpt lat="50.71863" lon="5.9087">
        <ele>219</ele>
        <time>2025-04-21T10:56:51Z</time>
      </trkpt>
      <trkpt lat="50.71854" lon="5.90953">
        <ele>217</ele>
        <time>2025-04-21T10:57:04Z</time>
      </trkpt>
      <trkpt lat="50.71857" lon="5.91062">
        <ele>216</ele>
        <time>2025-04-21T10:57:20Z</time>
      </trkpt>
      <trkpt lat="50.71865" lon="5.9111">
        <ele>214</ele>
        <time>2025-04-21T10:57:27Z</time>
      </trkpt>
      <trkpt lat="50.71882" lon="5.9117">
        <ele>212</ele>
        <time>2025-04-21T10:57:37Z</time>
      </trkpt>
      <trkpt lat="50.71918" lon="5.91259">
        <ele>210</ele>
        <time>2025-04-21T10:57:53Z</time>
      </trkpt>
      <trkpt lat="50.71949" lon="5.91308">
        <ele>210</ele>
        <time>2025-04-21T10:58:03Z</time>
      </trkpt>
      <trkpt lat="50.72" lon="5.91362">
        <ele>211</ele>
        <time>2025-04-21T10:58:17Z</time>
      </trkpt>
      <trkpt lat="50.72032" lon="5.91384">
        <ele>211</ele>
        <time>2025-04-21T10:58:25Z</time>
      </trkpt>
      <trkpt lat="50.7211" lon="5.91407">
        <ele>211</ele>
        <time>2025-04-21T10:58:44Z</time>
      </trkpt>
      <trkpt lat="50.72156" lon="5.91404">
        <ele>211</ele>
        <time>2025-04-21T10:58:55Z</time>
      </trkpt>
      <trkpt lat="50.72197" lon="5.91389">
        <ele>213</ele>
        <time>2025-04-21T10:59:05Z</time>
      </trkpt>
      <trkpt lat="50.72197" lon="5.91362">
        <ele>211</ele>
        <time>2025-04-21T10:59:09Z</time>
      </trkpt>
      <trkpt lat="50.72563" lon="5.91108">
        <ele>213</ele>
        <time>2025-04-21T11:00:42Z</time>
      </trkpt>
      <trkpt lat="50.72608" lon="5.91083">
        <ele>212</ele>
        <time>2025-04-21T11:00:53Z</time>
      </trkpt>
      <trkpt lat="50.7266" lon="5.91062">
        <ele>213</ele>
        <time>2025-04-21T11:01:06Z</time>
      </trkpt>
      <trkpt lat="50.72729" lon="5.91059">
        <ele>212</ele>
        <time>2025-04-21T11:01:22Z</time>
      </trkpt>
      <trkpt lat="50.72756" lon="5.91063">
        <ele>212</ele>
        <time>2025-04-21T11:01:28Z</time>
      </trkpt>
      <trkpt lat="50.72783" lon="5.91075">
        <ele>213</ele>
        <time>2025-04-21T11:01:35Z</time>
      </trkpt>
      <trkpt lat="50.72849" lon="5.91119">
        <ele>217</ele>
        <time>2025-04-21T11:01:51Z</time>
      </trkpt>
      <trkpt lat="50.72881" lon="5.91149">
        <ele>223</ele>
        <time>2025-04-21T11:02:00Z</time>
      </trkpt>
      <trkpt lat="50.72923" lon="5.91207">
        <ele>229</ele>
        <time>2025-04-21T11:02:13Z</time>
      </trkpt>
      <trkpt lat="50.72966" lon="5.91303">
        <ele>231</ele>
        <time>2025-04-21T11:02:30Z</time>
      </trkpt>
      <trkpt lat="50.72983" lon="5.91384">
        <ele>229</ele>
        <time>2025-04-21T11:02:43Z</time>
      </trkpt>
      <trkpt lat="50.72994" lon="5.91468">
        <ele>224</ele>
        <time>2025-04-21T11:02:56Z</time>
      </trkpt>
      <trkpt lat="50.72991" lon="5.91583">
        <ele>222</ele>
        <time>2025-04-21T11:03:13Z</time>
      </trkpt>
      <trkpt lat="50.72983" lon="5.91633">
        <ele>220</ele>
        <time>2025-04-21T11:03:20Z</time>
      </trkpt>
      <trkpt lat="50.72967" lon="5.91687">
        <ele>218</ele>
        <time>2025-04-21T11:03:29Z</time>
      </trkpt>
      <trkpt lat="50.7296" lon="5.91719">
        <ele>217</ele>
        <time>2025-04-21T11:03:34Z</time>
      </trkpt>
      <trkpt lat="50.73011" lon="5.91756">
        <ele>213</ele>
        <time>2025-04-21T11:03:47Z</time>
      </trkpt>
      <trkpt lat="50.73029" lon="5.91755">
        <ele>213</ele>
        <time>2025-04-21T11:03:51Z</time>
      </trkpt>
      <trkpt lat="50.73034" lon="5.91783">
        <ele>211</ele>
        <time>2025-04-21T11:03:56Z</time>
      </trkpt>
      <trkpt lat="50.73022" lon="5.91967">
        <ele>204</ele>
        <time>2025-04-21T11:04:23Z</time>
      </trkpt>
      <trkpt lat="50.73027" lon="5.92">
        <ele>203</ele>
        <time>2025-04-21T11:04:28Z</time>
      </trkpt>
      <trkpt lat="50.73042" lon="5.91998">
        <ele>203</ele>
        <time>2025-04-21T11:04:32Z</time>
      </trkpt>
      <trkpt lat="50.73065" lon="5.92003">
        <ele>202</ele>
        <time>2025-04-21T11:04:37Z</time>
      </trkpt>
      <trkpt lat="50.73118" lon="5.92042">
        <ele>201</ele>
        <time>2025-04-21T11:04:51Z</time>
      </trkpt>
      <trkpt lat="50.7314" lon="5.92071">
        <ele>199</ele>
        <time>2025-04-21T11:04:57Z</time>
      </trkpt>
      <trkpt lat="50.73182" lon="5.92192">
        <ele>193</ele>
        <time>2025-04-21T11:05:18Z</time>
      </trkpt>
      <trkpt lat="50.73203" lon="5.92232">
        <ele>192</ele>
        <time>2025-04-21T11:05:25Z</time>
      </trkpt>
      <trkpt lat="50.73284" lon="5.92343">
        <ele>192</ele>
        <time>2025-04-21T11:05:51Z</time>
      </trkpt>
      <trkpt lat="50.73299" lon="5.92356">
        <ele>191</ele>
        <time>2025-04-21T11:05:55Z</time>
      </trkpt>
      <trkpt lat="50.73717" lon="5.92522">
        <ele>187</ele>
        <time>2025-04-21T11:07:35Z</time>
      </trkpt>
      <trkpt lat="50.73754" lon="5.92618">
        <ele>184</ele>
        <time>2025-04-21T11:07:52Z</time>
      </trkpt>
      <trkpt lat="50.73849" lon="5.92916">
        <ele>178</ele>
        <time>2025-04-21T11:08:41Z</time>
      </trkpt>
      <trkpt lat="50.73906" lon="5.93081">
        <ele>178</ele>
        <time>2025-04-21T11:09:09Z</time>
      </trkpt>
      <trkpt lat="50.73946" lon="5.93163">
        <ele>174</ele>
        <time>2025-04-21T11:09:24Z</time>
      </trkpt>
      <trkpt lat="50.73991" lon="5.93238">
        <ele>171</ele>
        <time>2025-04-21T11:09:39Z</time>
      </trkpt>
      <trkpt lat="50.74038" lon="5.93309">
        <ele>167</ele>
        <time>2025-04-21T11:09:55Z</time>
      </trkpt>
      <trkpt lat="50.74079" lon="5.93363">
        <ele>164</ele>
        <time>2025-04-21T11:10:07Z</time>
      </trkpt>
      <trkpt lat="50.74104" lon="5.93384">
        <ele>163</ele>
        <time>2025-04-21T11:10:14Z</time>
      </trkpt>
      <trkpt lat="50.74218" lon="5.93461">
        <ele>160</ele>
        <time>2025-04-21T11:10:43Z</time>
      </trkpt>
      <trkpt lat="50.74286" lon="5.93504">
        <ele>160</ele>
        <time>2025-04-21T11:11:00Z</time>
      </trkpt>
      <trkpt lat="50.74397" lon="5.93564">
        <ele>161</ele>
        <time>2025-04-21T11:11:27Z</time>
      </trkpt>
      <trkpt lat="50.74424" lon="5.93593">
        <ele>161</ele>
        <time>2025-04-21T11:11:35Z</time>
      </trkpt>
      <trkpt lat="50.74471" lon="5.93699">
        <ele>159</ele>
        <time>2025-04-21T11:11:54Z</time>
      </trkpt>
      <trkpt lat="50.74536" lon="5.9383">
        <ele>158</ele>
        <time>2025-04-21T11:12:19Z</time>
      </trkpt>
      <trkpt lat="50.7458" lon="5.93781">
        <ele>156</ele>
        <time>2025-04-21T11:12:31Z</time>
      </trkpt>
      <trkpt lat="50.74706" lon="5.93598">
        <ele>149</ele>
        <time>2025-04-21T11:13:11Z</time>
      </trkpt>
      <trkpt lat="50.74727" lon="5.9358">
        <ele>148</ele>
        <time>2025-04-21T11:13:17Z</time>
      </trkpt>
      <trkpt lat="50.74745" lon="5.93574">
        <ele>148</ele>
        <time>2025-04-21T11:13:21Z</time>
      </trkpt>
      <trkpt lat="50.7477" lon="5.93577">
        <ele>147</ele>
        <time>2025-04-21T11:13:27Z</time>
      </trkpt>
      <trkpt lat="50.74906" lon="5.93624">
        <ele>142</ele>
        <time>2025-04-21T11:13:59Z</time>
      </trkpt>
      <trkpt lat="50.74923" lon="5.93624">
        <ele>142</ele>
        <time>2025-04-21T11:14:03Z</time>
      </trkpt>
      <trkpt lat="50.74973" lon="5.93588">
        <ele>141</ele>
        <time>2025-04-21T11:14:16Z</time>
      </trkpt>
      <trkpt lat="50.75044" lon="5.93524">
        <ele>146</ele>
        <time>2025-04-21T11:14:35Z</time>
      </trkpt>
      <trkpt lat="50.75058" lon="5.93504">
        <ele>148</ele>
        <time>2025-04-21T11:14:40Z</time>
      </trkpt>
      <trkpt lat="50.75064" lon="5.93484">
        <ele>149</ele>
        <time>2025-04-21T11:14:43Z</time>
      </trkpt>
      <trkpt lat="50.7507" lon="5.93444">
        <ele>152</ele>
        <time>2025-04-21T11:14:49Z</time>
      </trkpt>
      <trkpt lat="50.75072" lon="5.93396">
        <ele>155</ele>
        <time>2025-04-21T11:14:56Z</time>
      </trkpt>
      <trkpt lat="50.75077" lon="5.93367">
        <ele>156</ele>
        <time>2025-04-21T11:15:00Z</time>
      </trkpt>
      <trkpt lat="50.75091" lon="5.93374">
        <ele>155</ele>
        <time>2025-04-21T11:15:04Z</time>
      </trkpt>
      <trkpt lat="50.75116" lon="5.93371">
        <ele>154</ele>
        <time>2025-04-21T11:15:10Z</time>
      </trkpt>
      <trkpt lat="50.75145" lon="5.93441">
        <ele>148</ele>
        <time>2025-04-21T11:15:22Z</time>
      </trkpt>
      <trkpt lat="50.75167" lon="5.93437">
        <ele>146</ele>
        <time>2025-04-21T11:15:27Z</time>
      </trkpt>
      <trkpt lat="50.75195" lon="5.93437">
        <ele>145</ele>
        <time>2025-04-21T11:15:34Z</time>
      </trkpt>
      <trkpt lat="50.75256" lon="5.93445">
        <ele>142</ele>
        <time>2025-04-21T11:15:48Z</time>
      </trkpt>
      <trkpt lat="50.75315" lon="5.93469">
        <ele>140</ele>
        <time>2025-04-21T11:16:02Z</time>
      </trkpt>
      <trkpt lat="50.75347" lon="5.93467">
        <ele>140</ele>
        <time>2025-04-21T11:16:10Z</time>
      </trkpt>
      <trkpt lat="50.75361" lon="5.93496">
        <ele>137</ele>
        <time>2025-04-21T11:16:15Z</time>
      </trkpt>
      <trkpt lat="50.75393" lon="5.93521">
        <ele>134</ele>
        <time>2025-04-21T11:16:24Z</time>
      </trkpt>
      <trkpt lat="50.7548" lon="5.93634">
        <ele>128</ele>
        <time>2025-04-21T11:16:50Z</time>
      </trkpt>
      <trkpt lat="50.75516" lon="5.9365">
        <ele>127</ele>
        <time>2025-04-21T11:16:59Z</time>
      </trkpt>
      <trkpt lat="50.75552" lon="5.93698">
        <ele>124</ele>
        <time>2025-04-21T11:17:10Z</time>
      </trkpt>
      <trkpt lat="50.7557" lon="5.93709">
        <ele>124</ele>
        <time>2025-04-21T11:17:14Z</time>
      </trkpt>
      <trkpt lat="50.75594" lon="5.93728">
        <ele>123</ele>
        <time>2025-04-21T11:17:20Z</time>
      </trkpt>
      <trkpt lat="50.75628" lon="5.93698">
        <ele>123</ele>
        <time>2025-04-21T11:17:29Z</time>
      </trkpt>
      <trkpt lat="50.75632" lon="5.93706">
        <ele>123</ele>
        <time>2025-04-21T11:17:31Z</time>
      </trkpt>
      <trkpt lat="50.75632" lon="5.93727">
        <ele>123</ele>
        <time>2025-04-21T11:17:34Z</time>
      </trkpt>
      <trkpt lat="50.75641" lon="5.93773">
        <ele>122</ele>
        <time>2025-04-21T11:17:41Z</time>
      </trkpt>
      <trkpt lat="50.75646" lon="5.93786">
        <ele>123</ele>
        <time>2025-04-21T11:17:43Z</time>
      </trkpt>
      <trkpt lat="50.75641" lon="5.93828">
        <ele>123</ele>
        <time>2025-04-21T11:17:50Z</time>
      </trkpt>
    </trkseg>
  </trk>
</gpx>